Espace membre
Imprimable
Eupen, 03-04/08/2019, BEL - OstbelgienTriathlon
Liste des rapports > MD - Classements
Recherche: Page: [1]
86 Entrées
 
Les réclamations ne sont plus acceptées, les résultats sont considérés comme définitifs.
RangNrNomAgeIOCTempsTkmMoy.ScrLocalité
1.2021BRYDENBACH Tim35BEL4:11:343:33 16.931VORSELAAR
2.2018DIDIER Antoine27BEL4:19:043:39 16.442CINEY
3.2012DE GROOT Daan28NLD4:19:383:40 16.413UTRECHT
4.2091REDING François35BEL4:19:593:40 16.394THIAUMONT
5.2040DENIS Sylvain36BEL4:21:193:41 16.305NAMÈCHE
6.2011DE JONGE Marijn32NLD4:27:073:46 15.956ZEIST
7.2054PEX Nelis31BEL4:27:293:47 15.937SCHERPENHEUVEL
8.2172ZWAENEPOEL Jo37BEL4:33:323:52 15.5712MAARKEDAL
9.2042THIRIFAYS François25BEL4:35:343:53 15.4613LASNE
10.2178LAUWERS Aurélien34BEL4:36:183:54 15.4214THIMÉON
11.2085CORNELIS Olivier39BEL4:39:573:57 15.2215RUMST
12.2214GUILMOT Pierre-Philippe28BEL4:41:593:59 15.1116WIERDE
13.2020DE GENDT Ruben32BEL4:42:203:59 15.0917SCHELDEWINDEKE
14.2167VAN DONGEN Edouard29BEL4:43:504:00 15.0118LINKEBEEK
15.2031HEESTERMANS Frank30NLD4:46:014:02 14.8921DE STEEG
16.2196LANGERAK Jacco33NLD4:47:364:04 14.8123UTRECHT
17.2151DE BOER Joris30NLD4:51:414:07 14.6126WINKEL
18.2120SCHOUPPE Dries33BEL4:51:474:07 14.6027OUDEGEM
19.2206LANGENHORST Jurgen31NLD4:51:554:07 14.5928HAARLEM
20.2205BERTRET Alexandre25FRA4:52:344:08 14.5629LIÈGE
21.2161VAN EIJK Rens28NLD4:53:454:09 14.5030UTRECHT
22.2063SEVERIJNS Maxime34NLD4:56:104:11 14.3832MAASTRICHT
23.2032BONAMIE Davey33BEL4:56:124:11 14.3833OOSTKAMP
24.2119PLAETEVOET Yannick25BEL4:56:344:11 14.3734ANTWERPEN
25.2086SUYS Olivier27BEL4:56:434:11 14.3636BRUXELLES
26.2024SAEY Timothy36BEL5:00:244:14 14.1838ASSENEDE
27.2061DEVRIENDT Orion Osiris33BEL5:02:504:16 14.0742SCHAARBEEK
28.2162DE GEYTER Benjamin32BEL5:03:234:17 14.0443NAZARETH
29.2009DE NAYER Jan38BEL5:06:394:20 13.8946BRECHT
30.2128UBACHS Joey39NLD5:06:464:20 13.8947WEERT
31.2025GAIN Adrien31BEL5:07:194:20 13.8648CHARLEROI
32.2053STASSEN Renaud32DEU5:08:184:21 13.8250HOMBOURG
33.2213DUPONT Damien28BEL5:12:554:25 13.6154FALISOLLE
34.2199VERMEULEN Bram39BEL5:14:144:26 13.5659SLEIDINGE
35.2210VAN DER VLOET David34BEL5:16:374:28 13.4561KESSEL-LO
36.2044DU BRULLE Arthur24BEL5:19:394:31 13.3362BRUXELLES
37.2108VANDERHEYDEN Lionel36BEL5:24:074:34 13.1466RAGNIES
38.2135COOLS Stijn36BEL5:24:284:35 13.1368RIJKEVORSEL
39.2036MIZZI Quentin29FRA5:26:294:36 13.0570BOMBAYE
40.2154LOUP Ulrich38DEU5:27:054:37 13.0271AACHEN
41.2190BARIGAND Cyril27BEL5:28:404:38 12.9674MONS
42.2171WULLAERT Dimitri36BEL5:30:534:40 12.8778WAREGEM
43.2103SAFFROY Thibaut26FRA5:31:124:40 12.8679BRUXELLES
44.2145MAHMENS Timo39DEU5:31:254:41 12.8580MONHEIM
45.2019NAUDTS Gaetan39BEL5:31:374:41 12.8581WATERLOO
46.2201VERGNOL Arnaud35FRA5:33:114:42 12.7982SAINT JOSSE
47.2071DOCKX Jimmy35BEL5:33:364:42 12.7784SCHOTEN
48.2212DESCAMPS Adrien25BEL5:33:554:43 12.7686IXELLES
49.2118DIBLIK Jens32DEU5:35:064:44 12.7189MARMAGEN
50.2121VAN DEN BROECK Stef38BEL5:35:424:44 12.6990WESTERLO
51.2015SCHOLTES Maxime30FRA5:37:094:45 12.6493MONDORF-LES-BAINS
52.2130MAHLER Sjors28NLD5:37:534:46 12.6194AMSTERDAM
53.2047LEMMENS Nikola39BEL5:43:244:51 12.41101FRECHEN
54.2094VANHAUTE Ward37BEL5:43:314:51 12.40102BRASSCHAAT
55.2043KARKAN Alexandre24BEL5:44:174:51 12.37104BRUXELLES
56.2055VAN RIJ Kaey35NLD5:45:394:53 12.33107ROTTERDAM
57.2207PAULET Gaetan35BEL5:46:334:53 12.29108NIMY
58.2132GERNAEY Jeroen36BEL5:49:404:56 12.18115OOSTKAMP
59.2209DE WIT Jethro34BEL5:52:184:58 12.09121WOENSDRECHT
60.2203SEPPE Lanckriet25BEL5:58:345:04 11.88127ADEGEM
61.2219PROVO Victor34BEL5:59:545:05 11.84131VIEUX-BERQUIN
62.2106NEUBERTH Chris34DEU6:00:215:05 11.82132STUTTGART
63.2125WÉRY Sébastien32BEL6:01:545:06 11.77135MONTEGNÉE
64.2058OELLERS Valentin38DEU6:03:105:07 11.73138KÖLN
65.2030GERIN Jason25BEL6:04:085:08 11.70140MONS
66.2155ROELEVELD Thomas38NLD6:04:295:09 11.69143WASSENBERG
67.2169KAANDORP Marco31NLD6:05:225:09 11.66145BERG EN DAL
68.2185HALLET Xavier35BEL6:06:295:10 11.62147EGHEZEE
69.2084PEROTTO Danny36ITA6:07:595:11 11.58150SIGNEULX
70.2051DE STREEL Géraud27BEL6:08:065:12 11.57151CORROY LE CHATEAU
71.2147ABOU TAHA Mohamad32BEL6:09:405:13 11.52153IXELLES
72.2113VAN DER POST Edo26NLD6:14:525:17 11.36155GOUDA
73.2101ZAJONZ Anthony35FRA6:14:595:17 11.36157VILLERS SIRE NICOLE
74.2062BAYRO KAISER Fabio35DEU6:18:225:20 11.26159AACHEN
75.2045MCCORMICK Adam32IRL6:25:455:26 11.04166BELFAST
76.2187DESOBRY Guillaume35BEL6:29:045:29 10.95168UCCLE
77.2136VANWELDE Jean-François32BEL6:49:115:46 10.41173BRAINE-L'ALLEUD
78.2220MATTART Denis31BEL6:49:405:47 10.40175RAMILLIES
DSQ2016HACH Florian32DEU5:25:52ESCHWEILER
DNF2092DASSARGUES Charles36BELBRUXELLES
DNF2081DELMELLE Ludo35BELMICHELBEKE
DNF2038MAES Glenn27BELLOMMEL
DNF2078MICHIELS Sven37BELKRUIBEKE
DNF2110RADERMECKER Michel38BELBERNIMONT
DNF2194SJAAK Hoebers34NLDBERINGE
DNF2179TRUIN Alwin39NLDHILVERSUM
DNF: abandon; DSQ: disqualifié; Vitesse en km/h
Page: [1]